[[{"header":{"parameterUnit":"m.s-1","parameterCategory":1,"la1":30.2991,"la2":30.254,"lo1":-89.0895,"lo2":-89.0444,"dy":0.0017,"dx":0.0017,"nx":28,"ny":28,"refTime":"2023-07-27T03:00:00:Z","depth":0,"parameterNumber":2,"parameterNumberName":"U-component_of_WINDS"},"data":[0,0,0,0,0,0,0,0,0,0,0,0,0,0,0,0,0,0,0,0,0,0,0,0,0,0,0,0,0,0,0,0,0,0,0,0,0,0,0,0,0,0,0,0,0,0,0,0,0,0,0,0,0,0,0,0,0,0,1.176,1.1761,0,1.1862,1.1863,1.1864,1.1915,1.1915,1.1915,1.1915,1.2016,1.2019,1.2021,0,0,0,0,0,0,0,0,0,0,0,0,0,1.1607,1.1609,1.176,1.1762,1.1763,1.1862,1.1863,1.1864,1.1915,1.1915,1.1915,1.1915,1.2015,1.2018,1.2021,0,0,0,0,0,0,0,0,0,0,0,0,0,1.1687,1.161,1.176,1.18,1.1805,1.1861,1.1863,1.1865,1.1915,1.1915,1.1915,1.1915,1.2014,1.2018,1.2022,1.2046,0,0,1.2034,1.2036,0,0,0,0,0,0,0,0,1.1683,1.1693,1.1793,1.1797,1.1803,1.1876,1.1846,1.1925,1.1915,1.1873,1.1915,1.1915,1.1969,1.1977,1.1996,1.205,1.2055,1.2034,1.2037,1.2039,1.204,0,0,0,0,0,0,0,1.1677,1.1689,1.18,1.1794,1.18,1.1812,1.1823,1.1861,1.1919,1.1877,1.1881,1.1892,1.1972,1.1992,1.1998,1.2056,1.2034,1.2038,1.204,1.2042,1.2136,1.2136,0,0,0,0,0,0,1.1665,1.1684,1.1797,1.1803,1.1742,1.1815,1.1827,1.1852,1.1919,1.193,1.1892,1.1894,1.1985,1.1994,1.2002,1.2035,1.2039,1.2042,1.2045,1.2135,1.2136,1.2136,0,0,0,0,0,0,1.1662,1.1675,1.1793,1.1745,1.1761,1.1817,1.1845,1.1854,1.1874,1.1931,1.1941,1.1902,1.1985,1.1997,1.2035,1.2039,1.2044,1.2048,1.2135,1.2135,1.2136,1.2099,0,0,0,0,0,0,1.1657,1.1674,1.1684,1.1745,1.1763,1.1825,1.1845,1.1856,1.1881,1.1885,1.1943,1.1952,1.1986,1.2028,1.2039,1.2044,1.2051,1.2135,1.2135,1.2136,1.2101,1.2098,1.2097,0,0,0,0,0,1.1652,1.1669,1.1684,1.1698,1.1778,1.1825,1.1835,1.1875,1.1882,1.1892,1.1928,1.1951,1.2037,1.2032,1.2044,1.2051,1.2135,1.2135,1.2136,1.2101,1.2099,1.2097,0,0,0,0,0,0,1.1606,1.1678,1.1695,1.1733,1.1773,1.1833,1.1848,1.1871,1.1908,1.191,1.1956,1.1969,1.2003,1.2031,1.2024,1.2077,1.2088,1.2091,1.2058,1.2056,1.2054,1.2047,1.2054,0,0,0,0,0,1.1601,1.1635,1.1695,1.1722,1.1741,1.1791,1.1813,1.184,1.1882,1.1899,1.1938,1.1978,1.2014,1.2036,1.2072,1.2105,1.2118,1.2115,1.2113,1.2111,1.2113,1.2132,1.2132,1.2136,1.2136,1.2136,0,0,1.159,1.1633,1.1651,1.1714,1.1748,1.1781,1.1805,1.1838,1.1863,1.1904,1.1943,1.1973,1.202,1.2055,1.2072,1.2079,1.2115,1.2112,1.211,1.2113,1.2132,1.2132,1.2131,1.2136,1.2136,1.2136,0,0,1.1586,1.1622,1.1649,1.1683,1.1734,1.1767,1.1773,1.1831,1.1853,1.1892,1.1924,1.1953,1.2014,1.2046,1.2071,1.2079,1.2101,1.2089,1.2079,1.2097,1.2096,1.2096,1.2099,1.21,1.2091,1.2091,1.2091,0,1.1566,1.1618,1.166,1.1692,1.1719,1.1758,1.1785,1.1815,1.1875,1.1892,1.1899,1.1977,1.2011,1.2054,1.2056,1.2075,1.2083,1.2083,1.2093,1.2093,1.2094,1.2097,1.2098,1.2089,1.2089,1.2089,1.209,0,1.1589,1.1625,1.164,1.1698,1.1726,1.1756,1.1802,1.1825,1.1849,1.1881,1.192,1.1963,1.2009,1.2021,1.2045,1.2068,1.207,1.2084,1.2096,1.2091,1.2095,1.2097,1.2087,1.2087,1.2088,1.2088,0,0,1.156,1.1642,1.1647,1.1674,1.1733,1.176,1.1791,1.1837,1.1855,1.1895,1.1922,1.1972,1.1986,1.2014,1.2041,1.2057,1.206,1.2069,1.2071,1.2066,1.2088,1.2077,1.2078,1.2075,1.2076,1.2076,1.2084,0,1.1565,1.1624,1.1663,1.1705,1.1738,1.1776,1.1802,1.1841,1.1871,1.1903,1.1936,1.1971,1.1987,1.2004,1.2021,1.2056,1.2065,1.2056,1.21,1.2101,1.2087,1.208,1.2069,1.2075,1.2086,1.2086,1.2087,0,1.1579,1.1619,1.1665,1.1721,1.1736,1.1759,1.1804,1.1834,1.1878,1.1899,1.193,1.1958,1.1991,1.1999,1.2045,1.2038,1.2058,1.2078,1.2079,1.2085,1.2093,1.2086,1.2077,1.2078,1.2089,1.2089,1.2089,0,1.1553,1.1618,1.1654,1.1676,1.1742,1.1757,1.1785,1.183,1.1854,1.1893,1.1909,1.1951,1.1974,1.2005,1.2043,1.2046,1.2085,1.2097,1.2103,1.2102,1.2109,1.2108,1.2104,1.2122,1.2122,1.2122,1.2122,0,1.1555,1.1581,1.1644,1.1666,1.1696,1.174,1.1769,1.18,1.1839,1.1867,1.1902,1.1927,1.1976,1.2007,1.2037,1.207,1.208,1.2098,1.2105,1.2095,1.2093,1.2109,1.2109,1.2122,1.2122,1.2122,1.2122,0,1.1531,1.1574,1.1616,1.1675,1.169,1.171,1.176,1.1783,1.1815,1.185,1.1861,1.1911,1.1949,1.1991,1.2043,1.2063,1.2095,1.2105,1.208,1.2084,1.2088,1.2087,1.2094,1.2097,1.2112,1.2112,1.2112,0,1.1529,1.1551,1.1613,1.1634,1.1662,1.1696,1.1722,1.1766,1.1791,1.1843,1.1859,1.19,1.1935,1.1995,1.2035,1.2075,1.2087,1.2087,1.2093,1.2082,1.2087,1.2086,1.2088,1.2085,1.2084,1.2084,1.2084,0,1.1522,1.1542,1.1578,1.1622,1.1652,1.1688,1.1726,1.1741,1.1792,1.1818,1.1859,1.1886,1.194,1.198,1.2025,1.2052,1.2076,1.2082,1.2085,1.2075,1.2059,1.2068,1.2075,1.2081,1.2082,1.2082,1.2082,1.2082,1.1509,1.153,1.1577,1.1616,1.1649,1.1683,1.1707,1.1743,1.1777,1.1825,1.1848,1.1888,1.1932,1.1995,1.2022,1.2053,1.206,1.2065,1.2067,1.2067,1.2065,1.2054,1.2061,1.2061,1.2062,1.2062,1.2062,0,1.1503,1.1535,1.1571,1.1623,1.1653,1.1674,1.1717,1.174,1.1776,1.1814,1.1849,1.1895,1.1934,1.1978,1.2019,1.2036,1.2048,1.2045,1.2045,1.2051,1.2056,1.2048,1.2035,1.2035,1.2035,1.2035,1.2035,1.2035,1.1504,1.154,1.1566,1.1618,1.165,1.169,1.1713,1.1744,1.1776,1.1826,1.1859,1.1887,1.1928,1.1973,1.201,1.2021,1.2035,1.2029,1.2044,1.2048,1.205,1.2052,1.2046,1.2032,1.2032,1.2037,1.2037,1.2037]},{"header":{"parameterUnit":"m.s-1","parameterCategory":1,"la1":30.2991,"la2":30.254,"lo1":-89.0895,"lo2":-89.0444,"dy":0.0017,"dx":0.0017,"nx":28,"ny":28,"refTime":"2023-07-27T03:00:00:Z","depth":0,"parameterNumber":3,"parameterNumberName":"V-component_of_WINDS"},"data":[0,0,0,0,0,0,0,0,0,0,0,0,0,0,0,0,0,0,0,0,0,0,0,0,0,0,0,0,0,0,0,0,0,0,0,0,0,0,0,0,0,0,0,0,0,0,0,0,0,0,0,0,0,0,0,0,0,0,2.2438,2.2437,0,2.2361,2.236,2.2359,2.2286,2.2285,2.2285,2.2284,2.22,2.2199,2.2197,0,0,0,0,0,0,0,0,0,0,0,0,0,2.2517,2.2516,2.2438,2.2437,2.2436,2.2361,2.236,2.2359,2.2287,2.2285,2.2284,2.2283,2.22,2.2199,2.2197,0,0,0,0,0,0,0,0,0,0,0,0,0,2.2465,2.2515,2.2438,2.2391,2.2386,2.2361,2.236,2.2359,2.2287,2.2285,2.2284,2.2283,2.2201,2.2199,2.2197,2.2211,0,0,2.219,2.219,0,0,0,0,0,0,0,0,2.2468,2.2463,2.2399,2.2394,2.2388,2.2332,2.2357,2.2309,2.2287,2.2324,2.2284,2.2282,2.2245,2.2239,2.2227,2.2207,2.2204,2.219,2.2189,2.2188,2.2187,0,0,0,0,0,0,0,2.2472,2.2465,2.2407,2.2398,2.2392,2.2372,2.2363,2.2348,2.2293,2.2321,2.2315,2.2308,2.2241,2.2229,2.2225,2.2202,2.219,2.2188,2.2187,2.2186,2.2189,2.219,0,0,0,0,0,0,2.2484,2.2469,2.241,2.2405,2.2426,2.2372,2.2362,2.2351,2.2293,2.2283,2.2309,2.2305,2.2234,2.2227,2.2221,2.2233,2.2188,2.2186,2.2185,2.2187,2.2189,2.219,0,0,0,0,0,0,2.2486,2.2479,2.2413,2.2435,2.2426,2.2372,2.2361,2.2351,2.2338,2.2284,2.2273,2.2307,2.2232,2.2224,2.2214,2.2229,2.2185,2.2183,2.2186,2.2188,2.219,2.2258,0,0,0,0,0,0,2.2488,2.248,2.2486,2.2436,2.2425,2.2409,2.2362,2.235,2.2336,2.2329,2.2279,2.2269,2.2231,2.2218,2.2212,2.2226,2.2182,2.2184,2.2187,2.2189,2.2254,2.2262,2.2269,0,0,0,0,0,2.2491,2.2508,2.2487,2.248,2.2431,2.241,2.2403,2.2359,2.2337,2.2342,2.2307,2.2271,2.2229,2.2217,2.221,2.2224,2.2183,2.2186,2.2189,2.2251,2.2261,2.2269,0,0,0,0,0,0,2.2559,2.25,2.2476,2.2478,2.245,2.2398,2.2402,2.2371,2.2347,2.2342,2.2287,2.2277,2.2273,2.2247,2.2235,2.2234,2.2201,2.2203,2.2251,2.2259,2.2267,2.2272,2.218,0,0,0,0,0,2.2575,2.2563,2.2512,2.2518,2.2505,2.2457,2.2445,2.2414,2.2382,2.2369,2.2333,2.2302,2.2282,2.2269,2.2247,2.2251,2.2238,2.2256,2.2264,2.227,2.2272,2.227,2.2277,2.22,2.22,2.22,0,0,2.2605,2.2572,2.2568,2.2531,2.2505,2.2493,2.2447,2.2436,2.2426,2.2367,2.2356,2.2328,2.2289,2.2286,2.2283,2.2265,2.229,2.2274,2.2279,2.2277,2.2274,2.2281,2.2288,2.2202,2.2202,2.2201,0,0,2.2656,2.263,2.2632,2.2608,2.257,2.2538,2.2539,2.2491,2.2471,2.2459,2.2415,2.2401,2.2368,2.2342,2.2324,2.2365,2.2331,2.2359,2.2397,2.2397,2.2403,2.2408,2.2421,2.2427,2.2362,2.2362,2.2362,0,2.2698,2.2681,2.2636,2.2629,2.2613,2.2561,2.2561,2.2539,2.2496,2.2485,2.2467,2.2423,2.2393,2.2383,2.2393,2.2381,2.2378,2.2364,2.2406,2.2411,2.2415,2.2427,2.2432,2.2365,2.2365,2.2365,2.2364,0,2.2734,2.2723,2.2728,2.269,2.2674,2.2671,2.2625,2.2614,2.2585,2.2554,2.2542,2.2505,2.2474,2.2469,2.244,2.2454,2.2444,2.2417,2.2382,2.2426,2.2437,2.2441,2.2371,2.2369,2.2368,2.2367,0,0,2.2824,2.2762,2.2765,2.2746,2.2701,2.269,2.2684,2.2656,2.2648,2.262,2.2612,2.2585,2.2559,2.2539,2.2506,2.2506,2.2539,2.2478,2.2476,2.2489,2.2551,2.2571,2.2578,2.2517,2.2518,2.2518,2.2554,0,2.2866,2.2853,2.2813,2.2812,2.2799,2.275,2.2744,2.2715,2.2686,2.267,2.2637,2.2618,2.2586,2.2574,2.2572,2.2536,2.2551,2.2533,2.2507,2.2506,2.2517,2.2583,2.2605,2.264,2.2558,2.2558,2.2559,0,2.2913,2.289,2.2888,2.2843,2.2836,2.2832,2.2803,2.2789,2.2754,2.2733,2.2712,2.2676,2.2664,2.2634,2.2616,2.2605,2.2592,2.2573,2.2573,2.2568,2.2535,2.2578,2.265,2.2655,2.2565,2.2565,2.2564,0,2.2977,2.2946,2.294,2.2926,2.2874,2.2872,2.285,2.2815,2.28,2.2774,2.2764,2.2736,2.2721,2.27,2.2656,2.2638,2.2643,2.2609,2.2623,2.2625,2.2625,2.2626,2.2695,2.262,2.262,2.262,2.2619,0,2.3027,2.3028,2.2968,2.2965,2.2963,2.2917,2.2916,2.2889,2.2858,2.2846,2.2802,2.2792,2.2736,2.2719,2.2685,2.2675,2.2669,2.265,2.2641,2.2653,2.2656,2.2643,2.2639,2.2621,2.2621,2.262,2.262,0,2.3098,2.3059,2.3049,2.3002,2.299,2.2991,2.2949,2.2942,2.2911,2.2898,2.2892,2.2842,2.282,2.2776,2.2741,2.2718,2.2715,2.2699,2.2727,2.2721,2.2738,2.2736,2.28,2.2806,2.2729,2.2729,2.273,0,2.3132,2.3132,2.3084,2.3075,2.3055,2.304,2.3025,2.2979,2.2966,2.2927,2.2925,2.29,2.2877,2.2844,2.2803,2.2776,2.2759,2.2783,2.2754,2.2767,2.2757,2.2758,2.2756,2.2789,2.279,2.2791,2.2792,0,2.3196,2.3177,2.3159,2.3134,2.3118,2.3096,2.3071,2.3065,2.3013,2.2999,2.2977,2.296,2.2925,2.29,2.2867,2.2842,2.2808,2.2802,2.2803,2.2815,2.2831,2.2822,2.2744,2.28,2.2799,2.2799,2.2798,2.2798,2.3249,2.3245,2.3212,2.3193,2.317,2.3148,2.3139,2.3108,2.3089,2.3059,2.3032,2.3012,2.2977,2.2929,2.2907,2.2889,2.2872,2.2875,2.2875,2.2876,2.2881,2.2836,2.2883,2.2883,2.2882,2.2882,2.2882,0,2.3309,2.3285,2.3269,2.3236,2.3221,2.3192,2.3163,2.3151,2.3135,2.3106,2.3085,2.3059,2.3035,2.2993,2.2965,2.2959,2.2942,2.2953,2.2952,2.2946,2.2898,2.2899,2.2967,2.2967,2.2967,2.2967,2.2967,2.2967,2.3339,2.3332,2.3309,2.3289,2.3265,2.3246,2.3232,2.3211,2.3187,2.3161,2.3141,2.3115,2.308,2.3049,2.3025,2.3013,2.3004,2.3019,2.3002,2.2958,2.295,2.2942,2.2943,2.3018,2.3018,2.3051,2.3052,2.3052]}]]